Location: Cahas Mountain Overlook
(37.0833°N, 80.1000°W)
Time: 17:26:14
(UTC-05:00)

ISS - Pass Details

Date: 08 December 2021
Orbit: 413 x 422 km, 51.6° (Epoch: 28 January)

Event Time Altitude Azimuth Distance (km) Brightness Sun altitude
Rises 18:05:24 0° 307° (NW) 2,379 0.6 -12.2°
Reaches altitude 10° 18:07:31 10° 305° (NW) 1,508 -0.4 -12.6°
Maximum altitude 18:10:52 63° 223° (SW) 473 -3.3 -13.2°
Drops below altitude 10° 18:14:11 10° 142° (SE) 1,492 -1.2 -13.8°
Enters shadow 18:15:42 - 139° (SE) 2,107 -0.4 -14.1°
